[[{"header":{"parameterUnit":"m.s-1","parameterCategory":1,"la1":30.2991,"la2":30.254,"lo1":-89.0895,"lo2":-89.0444,"dy":0.0017,"dx":0.0017,"nx":28,"ny":28,"refTime":"2025-03-25T03:00:00:Z","depth":0,"parameterNumber":2,"parameterNumberName":"U-component_of_WINDS"},"data":[0,0,0,0,0,0,0,0,0,0,0,0,0,0,0,0,0,0,0,0,0,0,0,0,0,0,0,0,0,0,0,0,0,0,0,0,0,0,0,0,0,0,0,0,0,0,0,0,0,0,0,0,0,0,0,0,0,0,1.0936,1.0937,0,1.0997,1.0998,1.0998,1.0994,1.0993,1.0992,1.0991,1.1054,1.1057,1.1059,0,0,0,0,0,0,0,0,0,0,0,0,0,1.0816,1.0818,1.0936,1.0937,1.0937,1.0997,1.0998,1.0998,1.0994,1.0993,1.0992,1.0991,1.1054,1.1057,1.106,0,0,0,0,0,0,0,0,0,0,0,0,0,1.0872,1.0819,1.0936,1.0942,1.0943,1.0997,1.0998,1.0999,1.0994,1.0993,1.0991,1.099,1.1053,1.1056,1.106,1.1111,0,0,1.1072,1.1073,0,0,0,0,0,0,0,0,1.0868,1.0876,1.0941,1.0942,1.0943,1.0986,1.0978,1.1036,1.0995,1.0975,1.0991,1.099,1.1033,1.1038,1.1053,1.1114,1.1117,1.1072,1.1074,1.1076,1.1077,0,0,0,0,0,0,0,1.0865,1.0873,1.096,1.0941,1.0943,1.0942,1.0949,1.0989,1.1011,1.0977,1.0976,1.0984,1.1033,1.1049,1.1054,1.1117,1.1072,1.1075,1.1078,1.1079,1.1223,1.1224,0,0,0,0,0,0,1.0859,1.087,1.0958,1.0962,1.0902,1.0946,1.0953,1.0974,1.101,1.1015,1.0985,1.0983,1.1043,1.105,1.1056,1.1118,1.1076,1.1079,1.1082,1.1221,1.1223,1.1225,0,0,0,0,0,0,1.0857,1.0867,1.0956,1.0916,1.0927,1.0949,1.0973,1.0976,1.0991,1.1017,1.102,1.0997,1.1042,1.1051,1.1097,1.112,1.1081,1.1085,1.1219,1.1222,1.1224,1.1241,0,0,0,0,0,0,1.0853,1.0866,1.0886,1.0916,1.0929,1.0995,1.0974,1.0978,1.0998,1.0996,1.1029,1.1033,1.1042,1.1091,1.1101,1.1124,1.1088,1.1217,1.122,1.1223,1.1238,1.1243,1.1248,0,0,0,0,0,1.0849,1.0888,1.0887,1.0897,1.0954,1.0997,1.1004,1.1013,1.1,1.1019,1.1036,1.1032,1.1116,1.1096,1.1107,1.1132,1.1216,1.1219,1.1223,1.1236,1.1242,1.1248,0,0,0,0,0,0,1.086,1.0892,1.0891,1.0941,1.0966,1.0996,1.1021,1.102,1.1049,1.1047,1.1057,1.1065,1.1111,1.1126,1.1103,1.1182,1.1164,1.117,1.1171,1.1177,1.1182,1.1177,1.1091,0,0,0,0,0,1.0868,1.09,1.0927,1.0969,1.0981,1.0999,1.1018,1.1023,1.1049,1.1059,1.1079,1.1105,1.1137,1.1158,1.1189,1.1241,1.1247,1.1263,1.1268,1.1272,1.1276,1.1304,1.1311,1.1236,1.1236,1.1236,0,0,1.0886,1.0907,1.0927,1.0971,1.0991,1.1024,1.1008,1.1043,1.1067,1.1065,1.1109,1.1125,1.1154,1.1203,1.1226,1.1217,1.1299,1.1276,1.1279,1.1281,1.1308,1.1316,1.1322,1.1238,1.1238,1.1237,0,0,1.0934,1.0954,1.0991,1.1011,1.1041,1.1052,1.1061,1.1091,1.11,1.1145,1.1144,1.1173,1.1228,1.1249,1.1267,1.1323,1.132,1.1333,1.1357,1.1384,1.139,1.1395,1.1415,1.1422,1.1337,1.1337,1.1337,0,1.0952,1.1001,1.101,1.1045,1.1064,1.1064,1.1101,1.112,1.1159,1.1172,1.1162,1.1231,1.1251,1.1304,1.1318,1.1333,1.1343,1.1329,1.1388,1.1394,1.1399,1.1417,1.1425,1.1339,1.1338,1.1338,1.1338,0,1.1021,1.1055,1.1081,1.1118,1.114,1.1176,1.1191,1.1213,1.1216,1.1228,1.1274,1.1297,1.1333,1.1346,1.135,1.14,1.1394,1.1386,1.1368,1.1407,1.1425,1.1432,1.134,1.134,1.1339,1.1339,0,0,1.1078,1.1119,1.1128,1.1145,1.1178,1.1204,1.124,1.1274,1.1292,1.1319,1.1349,1.1396,1.1389,1.1409,1.1415,1.1439,1.1481,1.1428,1.1429,1.1437,1.1537,1.1542,1.155,1.1479,1.1481,1.1482,1.1534,0,1.1129,1.1192,1.1201,1.1257,1.1288,1.1288,1.1319,1.1343,1.1356,1.1384,1.1398,1.1431,1.1419,1.1431,1.1455,1.1471,1.1501,1.1467,1.1507,1.1509,1.1499,1.1559,1.1565,1.1613,1.1541,1.1542,1.1543,0,1.1197,1.1225,1.1284,1.1312,1.1325,1.1353,1.1385,1.1412,1.1439,1.1446,1.1469,1.1472,1.1509,1.1489,1.1541,1.1517,1.1534,1.1545,1.1547,1.155,1.1528,1.1564,1.1629,1.1636,1.1554,1.1553,1.1553,0,1.1232,1.1284,1.1326,1.134,1.1374,1.1394,1.1409,1.1434,1.1454,1.1482,1.1495,1.1527,1.1545,1.1569,1.1581,1.1566,1.1631,1.1613,1.1638,1.1638,1.1652,1.165,1.1719,1.1664,1.1664,1.1664,1.1663,0,1.1287,1.1323,1.1342,1.1368,1.1408,1.1418,1.1457,1.1472,1.1494,1.1523,1.1525,1.1552,1.1565,1.1594,1.1603,1.1644,1.1652,1.1659,1.1661,1.1659,1.1658,1.167,1.1666,1.1665,1.1665,1.1665,1.1664,0,1.1333,1.1347,1.1392,1.142,1.1428,1.1457,1.1481,1.1506,1.1518,1.1554,1.1563,1.1583,1.1617,1.163,1.1672,1.1679,1.1725,1.1725,1.1716,1.1716,1.1741,1.1738,1.1819,1.183,1.1768,1.1768,1.1769,0,1.1367,1.1395,1.1426,1.1445,1.146,1.1491,1.1511,1.1522,1.1543,1.1575,1.1596,1.163,1.1657,1.1712,1.173,1.1761,1.1762,1.1788,1.1766,1.1763,1.1761,1.1759,1.1761,1.1792,1.1792,1.1793,1.1793,0,1.1426,1.1432,1.146,1.1492,1.1515,1.154,1.1565,1.1581,1.1595,1.1619,1.1653,1.1674,1.1717,1.175,1.1783,1.1799,1.1798,1.18,1.1807,1.1805,1.1798,1.1801,1.1726,1.1798,1.1797,1.1797,1.1797,1.1796,1.1467,1.1491,1.1516,1.1548,1.1568,1.159,1.1615,1.163,1.1659,1.1694,1.1699,1.1735,1.1761,1.1805,1.1822,1.1851,1.1844,1.1855,1.1858,1.186,1.1861,1.1794,1.1857,1.1857,1.1857,1.1857,1.1857,0,1.1525,1.1542,1.1571,1.1605,1.163,1.1627,1.1654,1.1675,1.1707,1.1731,1.1758,1.1797,1.1829,1.185,1.1882,1.1901,1.1902,1.1909,1.1908,1.1911,1.1866,1.1856,1.1908,1.1908,1.1908,1.1908,1.1908,1.1908,1.1559,1.1599,1.1607,1.1658,1.1674,1.1709,1.1725,1.1746,1.1764,1.1808,1.1835,1.1848,1.187,1.1904,1.1934,1.1939,1.195,1.1958,1.1963,1.192,1.1914,1.1909,1.19,1.1961,1.1961,1.2006,1.2006,1.2006]},{"header":{"parameterUnit":"m.s-1","parameterCategory":1,"la1":30.2991,"la2":30.254,"lo1":-89.0895,"lo2":-89.0444,"dy":0.0017,"dx":0.0017,"nx":28,"ny":28,"refTime":"2025-03-25T03:00:00:Z","depth":0,"parameterNumber":3,"parameterNumberName":"V-component_of_WINDS"},"data":[0,0,0,0,0,0,0,0,0,0,0,0,0,0,0,0,0,0,0,0,0,0,0,0,0,0,0,0,0,0,0,0,0,0,0,0,0,0,0,0,0,0,0,0,0,0,0,0,0,0,0,0,0,0,0,0,0,0,-0.1532,-0.1532,0,-0.1536,-0.1536,-0.1536,-0.1564,-0.1564,-0.1565,-0.1566,-0.1569,-0.1568,-0.1568,0,0,0,0,0,0,0,0,0,0,0,0,0,-0.1549,-0.1549,-0.1532,-0.1532,-0.1532,-0.1536,-0.1536,-0.1536,-0.1564,-0.1564,-0.1565,-0.1566,-0.1569,-0.1568,-0.1568,0,0,0,0,0,0,0,0,0,0,0,0,0,-0.1546,-0.1548,-0.1532,-0.1546,-0.1548,-0.1536,-0.1536,-0.1536,-0.1563,-0.1564,-0.1565,-0.1566,-0.1569,-0.1569,-0.1568,-0.1542,0,0,-0.1565,-0.1565,0,0,0,0,0,0,0,0,-0.1546,-0.1545,-0.1544,-0.1545,-0.1547,-0.155,-0.1543,-0.1538,-0.1563,-0.1557,-0.1566,-0.1567,-0.1562,-0.1562,-0.156,-0.1542,-0.1543,-0.1565,-0.1565,-0.1564,-0.1564,0,0,0,0,0,0,0,-0.1546,-0.1545,-0.1534,-0.1544,-0.1546,-0.1553,-0.1553,-0.1542,-0.1554,-0.1558,-0.156,-0.156,-0.1563,-0.1561,-0.156,-0.1543,-0.1565,-0.1564,-0.1564,-0.1564,-0.1505,-0.1504,0,0,0,0,0,0,-0.1545,-0.1545,-0.1534,-0.1534,-0.1549,-0.1552,-0.1552,-0.1548,-0.1554,-0.1556,-0.1559,-0.1561,-0.1562,-0.1561,-0.1561,-0.1531,-0.1564,-0.1564,-0.1563,-0.1506,-0.1505,-0.1503,0,0,0,0,0,0,-0.1545,-0.1543,-0.1533,-0.154,-0.1539,-0.155,-0.1545,-0.1548,-0.1546,-0.1555,-0.1557,-0.1555,-0.1563,-0.1562,-0.1547,-0.1532,-0.1563,-0.1562,-0.1507,-0.1505,-0.1504,-0.1472,0,0,0,0,0,0,-0.1545,-0.1543,-0.1534,-0.154,-0.1539,-0.1519,-0.1544,-0.1547,-0.1544,-0.1547,-0.1552,-0.1553,-0.1563,-0.1548,-0.1546,-0.1531,-0.1562,-0.1508,-0.1506,-0.1504,-0.1475,-0.147,-0.1466,0,0,0,0,0,-0.1546,-0.1524,-0.1533,-0.1531,-0.1527,-0.1518,-0.1518,-0.153,-0.1543,-0.1534,-0.154,-0.1553,-0.1534,-0.1546,-0.1544,-0.1529,-0.1509,-0.1507,-0.1505,-0.1477,-0.1471,-0.1466,0,0,0,0,0,0,-0.1515,-0.1525,-0.1535,-0.1515,-0.1516,-0.1523,-0.1511,-0.1523,-0.152,-0.1522,-0.1537,-0.1538,-0.1521,-0.1524,-0.1537,-0.1505,-0.1524,-0.1521,-0.1504,-0.1498,-0.1494,-0.1493,-0.1561,0,0,0,0,0,-0.1507,-0.1499,-0.1508,-0.1489,-0.1489,-0.15,-0.1497,-0.1506,-0.1507,-0.1507,-0.1512,-0.1513,-0.1507,-0.1503,-0.1498,-0.1476,-0.1477,-0.1465,-0.146,-0.1456,-0.1453,-0.1442,-0.1436,-0.1495,-0.1495,-0.1495,0,0,-0.1488,-0.1492,-0.1486,-0.1483,-0.1485,-0.1476,-0.15,-0.149,-0.1484,-0.1506,-0.1492,-0.1496,-0.1498,-0.1479,-0.1471,-0.148,-0.1438,-0.1453,-0.145,-0.1449,-0.1439,-0.1433,-0.1428,-0.1494,-0.1494,-0.1494,0,0,-0.1449,-0.1452,-0.1437,-0.1438,-0.1441,-0.1448,-0.1445,-0.145,-0.1454,-0.144,-0.1457,-0.145,-0.144,-0.144,-0.1439,-0.1402,-0.1415,-0.14,-0.1376,-0.1365,-0.136,-0.1356,-0.1343,-0.1338,-0.1397,-0.1397,-0.1397,0,-0.1425,-0.1413,-0.1427,-0.1416,-0.1415,-0.1435,-0.142,-0.1421,-0.1421,-0.1419,-0.1431,-0.1418,-0.1421,-0.1403,-0.1394,-0.1393,-0.1389,-0.1399,-0.136,-0.1356,-0.1352,-0.134,-0.1335,-0.1396,-0.1396,-0.1396,-0.1396,0,-0.1384,-0.1375,-0.1363,-0.1363,-0.136,-0.1347,-0.136,-0.1355,-0.1365,-0.1371,-0.1358,-0.1362,-0.1358,-0.1355,-0.1364,-0.1338,-0.1344,-0.1357,-0.1377,-0.1345,-0.1333,-0.1328,-0.1393,-0.1394,-0.1394,-0.1395,0,0,-0.1325,-0.1334,-0.1329,-0.133,-0.1335,-0.1329,-0.1317,-0.1314,-0.131,-0.131,-0.13,-0.1291,-0.1304,-0.1303,-0.1313,-0.1303,-0.1273,-0.1317,-0.1318,-0.1309,-0.1245,-0.1234,-0.1228,-0.1282,-0.1281,-0.1281,-0.1245,0,-0.1287,-0.1268,-0.1281,-0.1259,-0.1251,-0.1271,-0.1261,-0.1263,-0.1269,-0.1264,-0.1271,-0.1264,-0.1281,-0.1281,-0.1272,-0.1279,-0.126,-0.1282,-0.1273,-0.1272,-0.1271,-0.1222,-0.1211,-0.1177,-0.124,-0.1239,-0.1239,0,-0.1241,-0.1239,-0.1217,-0.1224,-0.1221,-0.1212,-0.1211,-0.1205,-0.1208,-0.1213,-0.1213,-0.1225,-0.1214,-0.1234,-0.1219,-0.1233,-0.1231,-0.1234,-0.1233,-0.1232,-0.1253,-0.122,-0.1166,-0.1161,-0.1232,-0.1232,-0.1233,0,-0.12,-0.1192,-0.1178,-0.1178,-0.1186,-0.1179,-0.1182,-0.1186,-0.1184,-0.1183,-0.1181,-0.1179,-0.1177,-0.1175,-0.1187,-0.12,-0.117,-0.1191,-0.1174,-0.1174,-0.1166,-0.1166,-0.1111,-0.1165,-0.1166,-0.1166,-0.1166,0,-0.1156,-0.1142,-0.116,-0.1151,-0.1135,-0.1151,-0.1135,-0.114,-0.1144,-0.1136,-0.1154,-0.1146,-0.1162,-0.1157,-0.1166,-0.1152,-0.1152,-0.1155,-0.1158,-0.1153,-0.1153,-0.1151,-0.1154,-0.1164,-0.1165,-0.1165,-0.1165,0,-0.1107,-0.1119,-0.1105,-0.1114,-0.1116,-0.1104,-0.1112,-0.1104,-0.1112,-0.1102,-0.1101,-0.1113,-0.1107,-0.1119,-0.1115,-0.1121,-0.1102,-0.1108,-0.1101,-0.1102,-0.1085,-0.1086,-0.1026,-0.1019,-0.1078,-0.1078,-0.1077,0,-0.1078,-0.1068,-0.1076,-0.1072,-0.1074,-0.1069,-0.1066,-0.1082,-0.1079,-0.1082,-0.1073,-0.1069,-0.1067,-0.1057,-0.1065,-0.1062,-0.1069,-0.1048,-0.1068,-0.1064,-0.1068,-0.1068,-0.1067,-0.1043,-0.1042,-0.1042,-0.1041,0,-0.1025,-0.1032,-0.1029,-0.1027,-0.1024,-0.1024,-0.1025,-0.1021,-0.1037,-0.1033,-0.1027,-0.1025,-0.1022,-0.1017,-0.1017,-0.102,-0.1033,-0.1035,-0.1031,-0.1026,-0.1022,-0.1024,-0.1089,-0.1036,-0.1037,-0.1037,-0.1037,-0.1038,-0.0985,-0.0977,-0.0982,-0.0977,-0.098,-0.098,-0.0974,-0.0981,-0.0977,-0.0975,-0.0985,-0.0977,-0.0981,-0.0982,-0.0983,-0.0978,-0.0987,-0.0981,-0.098,-0.0978,-0.0975,-0.1023,-0.0978,-0.0978,-0.0978,-0.0978,-0.0978,0,-0.0933,-0.0938,-0.0934,-0.0935,-0.0931,-0.0945,-0.0947,-0.0943,-0.0936,-0.0939,-0.0937,-0.0931,-0.0927,-0.0935,-0.0933,-0.0927,-0.0933,-0.0926,-0.0926,-0.0926,-0.0967,-0.097,-0.0921,-0.0921,-0.0921,-0.0921,-0.0921,-0.0921,-0.0906,-0.0893,-0.09,-0.0888,-0.0893,-0.0886,-0.0886,-0.0887,-0.0889,-0.0882,-0.0879,-0.0885,-0.089,-0.0888,-0.0885,-0.0888,-0.0886,-0.0876,-0.0881,-0.0918,-0.0923,-0.0929,-0.0932,-0.0876,-0.0876,-0.0841,-0.084,-0.084]}]]